Location: Karcze
(52.0945°N, 22.4786°E)
Time: 03:53:21
(UTC+00:00)

IRS-1C - Visible Passes

Search period start: 23 October 2020 00:00
Search period end: 02 November 2020 00:00
Orbit: 815 x 817 km, 98.8° (Epoch: 22 October)

Date Brightness Start Highest point End Pass type
(mag) Time Alt. Az. Time Alt. Az. Time Alt. Az.
23 Oct 5.7 01:06:30 10° NNE 01:09:21 31° NE 01:09:21 31° NE visible
23 Oct 5.3 02:47:00 10° N 02:50:37 27° NW 02:50:37 27° NW visible
24 Oct 6.2 00:44:48 10° NNE 00:47:07 24° NE 00:47:07 24° NE visible
24 Oct 5.1 02:24:55 10° N 02:28:23 32° NNW 02:28:23 32° NNW visible
25 Oct 6.6 00:23:16 10° NE 00:24:54 18° NE 00:24:54 18° NE visible
25 Oct 5.1 02:02:54 10° N 02:06:10 35° N 02:06:10 35° N visible
25 Oct 5.9 03:44:45 10° NNW 03:47:03 13° NW 03:47:26 13° NW visible
26 Oct 6.9 00:01:56 10° NE 00:02:40 12° NE 00:02:40 12° NE visible
26 Oct 5.4 01:40:59 10° NNE 01:43:56 34° N 01:43:56 34° N visible
26 Oct 5.7 03:22:09 10° NNW 03:25:12 17° NW 03:25:12 17° NW visible
27 Oct 5.7 01:19:08 10° NNE 01:21:42 29° NNE 01:21:42 29° NNE visible
27 Oct 5.5 02:59:51 10° N 03:02:58 22° NW 03:02:58 22° NW visible
28 Oct 6.2 00:57:22 10° NNE 00:59:29 23° NE 00:59:29 23° NE visible
28 Oct 5.4 02:37:42 10° N 02:40:44 27° NNW 02:40:44 27° NNW visible
29 Oct 6.6 00:35:44 10° NNE 00:37:15 18° NE 00:37:15 18° NE visible
29 Oct 5.4 02:15:39 10° N 02:18:31 29° NNW 02:18:31 29° NNW visible
29 Oct 6.1 03:58:16 10° NNW 03:59:29 11° NW 03:59:47 11° NW visible
30 Oct 6.9 00:14:16 10° NE 00:15:01 13° NE 00:15:01 13° NE visible
30 Oct 5.5 01:53:41 10° N 01:56:17 29° N 01:56:17 29° N visible
30 Oct 5.9 03:35:11 10° NNW 03:37:33 15° NW 03:37:33 15° NW visible
31 Oct 5.8 01:31:47 10° NNE 01:34:04 26° NNE 01:34:04 26° NNE visible
31 Oct 5.7 03:12:45 10° N 03:15:19 19° NW 03:15:19 19° NW visible
01 Nov 6.2 01:09:58 10° NNE 01:11:50 22° NNE 01:11:50 22° NNE visible
01 Nov 5.6 02:50:32 10° N 02:53:06 22° NNW 02:53:06 22° NNW visible
